Location: Burgberg
(50.1428°N, 11.0671°E)
Time: 19:29:53
(UTC+00:00)

USA 215 - Pass Details

Date: 26 January 2020
Orbit: 1101 x 1107 km, 123.0° (Epoch: 06 February)

Event Time Altitude Azimuth Distance (km) Brightness Sun altitude
Rises 03:22:19 0° 103° (ESE) 3,919 7.0 -34.4°
Reaches altitude 10° 03:24:49 10° 100° (E) 2,962 6.2 -34.0°
Maximum altitude 03:31:16 65° 21° (NNE) 1,203 3.4 -33.0°
Enters shadow 03:31:26 65° 12° (NNE) 1,205 3.4 -32.9°
